Location: Borojevi?i
(45.0486°N, 16.2297°E)
Time: 10:19:51
(UTC+00:00)

Cosmos 2237 Rocket - Pass Details

Date: 08 August 2020
Orbit: 836 x 849 km, 71.0° (Epoch: 20 September)

Event Time Altitude Azimuth Distance (km) Brightness Sun altitude
Rises 22:37:08 0° 341° (NNW) 3,411 6.5 -28.9°
Reaches altitude 10° 22:40:02 10° 354° (N) 2,470 5.6 -29.0°
Maximum altitude 22:44:41 25° 50° (NE) 1,623 3.9 -29.1°
Enters shadow 22:46:59 20° 84° (E) 1,863 4.0 -29.1°
